Temp
63 63 63 62 63 62 62 64 65 63 62 62 64 64 62 61 60 60 60 62 62 62
62 62 63 63 63 63 64 64 64 63 62 62 63 64 65 63 62 62 62 62 61 62
62 64 64 64 63 63 63 64 65 64 64 64 64 65 64 63 63 62 63 63 63 63
62 63 64 63 64 64 63 64 65 65 65 64 64 65 64 64 64 63 63 64 63 62
63 63 63 63 64 65 64 64 65 66 66 66 65 65 64 63 66 64 63 63 63 63
63 63 63 64 64 65 65 65 65 66 66 65 64 64 64 64 64 64 65 65 64 63
65 64 64 66 65 65 67 66 66 66 66 66 66 66 66 65 64 64 64 64 64 64
69 68 67 66 66 66 67 67 67 66 66 67 67 68 66 66 65 64 64 64 65 65
71 70 68 68 68 67 67 67 67 66 66 66 68 57 51 58 65 65 64 63 64 64
72 71 69 69 68 67 66 66 66 66 66 66 66 52 49 48 63 65 64 63 62 62
73 71 71 69 68 67 66 65 65 65 65 64 66 48 46 44 55 60 62 61 60 58
73 72 71 69 67 67 66 65 64 65 64 63 62 39 41 45 56 57 45 39 39 40
57 73 71 69 67 66 66 65 60 44 41 38 40 37 40 43 44 37 34 34 34 35
49 53 53 59 56 60 46 40 37 35 35 35 35 36 37 38 36 34 32 32 32 33
MSLP
1009.72 1010.28 1010.80 1011.40 1011.98 1012.55 1012.89 1013.14 1013.50 1014.04 1014.64 1015.23 1015.42 1015.67 1016.10 1016.80 1017.28 1017.78 1018.05 1018.25 1018.19 1018.25
1008.89 1009.49 1010.06 1010.73 1011.36 1011.84 1012.30 1012.80 1013.12 1013.54 1014.02 1014.40 1014.70 1015.00 1015.65 1016.00 1016.25 1016.58 1017.31 1017.79 1017.43 1017.32
1008.36 1008.70 1009.20 1009.86 1010.38 1010.92 1011.48 1012.07 1012.44 1012.91 1013.28 1013.65 1014.11 1014.67 1015.07 1015.24 1015.53 1015.91 1016.03 1016.35 1016.65 1016.61
1007.53 1008.03 1008.53 1008.88 1009.23 1009.80 1010.51 1011.03 1011.32 1011.72 1012.33 1012.84 1013.29 1013.65 1013.91 1014.12 1014.49 1014.84 1015.01 1015.19 1015.37 1015.52
1006.81 1007.33 1007.61 1007.85 1008.20 1008.72 1009.20 1009.88 1010.31 1010.67 1010.99 1011.42 1011.88 1012.40 1012.62 1012.88 1013.05 1013.44 1013.65 1013.81 1014.17 1014.19
1005.60 1006.17 1006.36 1006.69 1007.32 1007.87 1008.29 1008.61 1009.12 1009.36 1009.46 1009.81 1010.43 1010.99 1011.29 1011.67 1011.97 1012.07 1012.00 1012.15 1012.56 1012.71
1004.03 1004.70 1005.33 1005.64 1006.01 1006.55 1006.76 1007.26 1007.61 1007.86 1008.25 1008.69 1009.18 1009.52 1009.83 1010.04 1010.26 1010.49 1010.68 1010.90 1011.13 1011.37
1002.68 1003.40 1004.03 1004.55 1004.85 1005.25 1005.63 1005.78 1006.19 1006.63 1006.98 1007.32 1007.71 1007.79 1008.20 1008.61 1008.92 1009.29 1009.58 1009.69 1009.77 1009.94
1001.55 1002.08 1002.42 1002.89 1003.38 1003.87 1004.06 1004.42 1004.96 1005.25 1005.57 1005.97 1006.08 1006.18 1006.75 1007.35 1007.67 1007.96 1008.36 1008.43 1008.55 1008.76
1000.40 1000.86 1001.33 1002.04 1002.55 1002.60 1002.95 1003.72 1003.79 1004.08 1004.36 1004.45 1004.71 1004.98 1005.62 1006.20 1006.78 1007.05 1007.16 1007.35 1007.67 1007.81
999.55 999.92 1000.25 1000.99 1001.42 1001.82 1002.39 1002.84 1003.29 1003.63 1004.16 1004.55 1004.40 1004.69 1005.04 1005.52 1006.17 1006.27 1006.35 1006.73 1007.02 1007.16
998.42 998.97 999.41 999.86 1000.28 1000.96 1001.76 1002.28 1002.80 1003.44 1003.95 1004.24 1004.39 1005.22 1004.78 1004.95 1005.21 1006.02 1006.86 1007.65 1007.89 1007.94
1000.60 998.23 998.11 998.56 999.21 1000.01 1000.76 1001.64 1002.30 1003.82 1004.82 1005.38 1005.65 1005.78 1005.20 1005.13 1005.49 1006.37 1007.58 1008.57 1008.92 1008.91
1002.53 1001.27 1000.12 998.94 999.37 999.57 1001.13 1002.44 1003.90 1005.01 1006.10 1006.54 1006.87 1006.74 1006.30 1006.21 1006.44 1007.09 1007.96 1008.65 1009.45 1009.97
Wind_Speed
16 11 11 15 13 11 11 11 13 11 10 10 10 10 8 6 7 6 7 12 12 7
17 17 14 15 14 13 14 11 12 10 12 12 12 13 14 11 11 10 12 15 10 9
16 16 16 15 17 17 16 17 16 16 15 16 17 17 16 13 13 15 13 10 12 11
15 16 15 15 16 18 17 17 19 18 16 17 18 18 18 18 17 18 16 15 14 14
17 17 18 17 18 18 18 19 19 19 19 19 19 18 19 19 18 19 18 18 16 17
17 19 20 19 19 18 18 18 19 21 21 19 18 19 20 20 20 20 20 18 17 17
19 20 19 18 18 19 19 19 20 21 21 21 21 21 21 22 22 21 20 20 18 18
15 17 18 20 20 19 19 18 19 20 21 20 21 17 22 21 20 20 20 19 19 19
14 16 18 18 17 17 18 20 18 20 19 20 17 18 19 18 17 18 18 18 17 17
14 16 16 16 17 19 19 16 19 19 18 21 19 18 18 19 16 16 16 16 14 13
13 15 14 15 18 17 14 16 15 16 17 14 14 10 14 15 12 14 16 14 13 10
14 15 14 14 16 14 12 13 14 12 13 14 13 10 6 10 11 12 2 6 6 4
22 13 16 15 14 11 11 12 4 10 9 13 8 12 8 4 4 6 6 8 9 14
17 16 17 5 6 2 10 11 11 11 9 11 10 9 12 11 6 7 8 8 8 8
Wind_Direction
189 189 190 190 193 202 204 210 213 205 191 197 207 210 192 186 194 221 260 252 209 209
190 194 194 191 197 200 206 206 203 202 206 204 212 220 218 212 208 208 225 239 226 214
199 195 193 196 197 200 203 209 206 207 206 207 208 212 213 212 214 216 218 219 230 223
196 198 202 197 202 202 203 206 210 209 208 210 214 214 213 214 215 217 222 227 227 223
201 200 203 205 206 202 201 204 210 215 212 213 212 214 216 216 217 221 223 226 228 232
196 203 209 207 205 206 209 208 210 215 212 209 209 212 218 221 224 228 231 229 228 229
197 202 210 213 206 210 212 208 210 213 215 218 215 219 220 219 222 225 230 234 233 233
201 203 204 208 212 213 216 215 214 214 218 219 220 220 218 221 223 225 231 234 235 235
212 206 211 213 214 213 212 214 215 219 218 217 225 223 215 223 228 229 233 236 238 239
219 215 216 215 216 219 219 218 221 225 221 224 224 219 213 211 228 235 236 238 242 245
220 227 220 213 220 224 221 223 224 227 230 237 238 230 215 204 216 231 241 244 249 258
211 221 223 219 221 219 220 223 226 229 226 227 229 12 311 203 211 225 48 59 38 56
349 230 216 214 215 210 208 219 232 81 51 41 54 17 19 158 116 106 93 67 60 64
355 345 8 31 22 138 88 94 85 81 62 54 37 32 51 58 77 111 107 100 85 81